Terug naar catalogus

STARLINK-31078

ActiefCommunicatieVLEO
NORAD 58638·PAYLOAD·🇺🇸 United States

Gelanceerd Dec 23, 2023 vanaf Cape Canaveral Space Force Station

Loading…

Volgende Passages (komende 24 uur)

TLE

VersSource: CelesTrak SupGP

Epoch: Sep 14, 2026, 20:57 UTC

1 58638C 23203W   26257.87340278  .00009531  00000+0  34525-3 0  2577
2 58638  43.0026  78.8845 0001259 273.0409  38.6421 15.27568842    12

Volg STARLINK-31078 in realtime met AllMySat

Download on the App Store